{"data":{"norad_id":63461,"epoch":"2026-09-19T07:20:18.000960Z","epoch_age_seconds":259117,"freshness":"STALE","line1":"1 63461U 25070B   26262.30576390  .00013740  00000+0  50784-3 0  9996","line2":"2 63461  42.9977 246.6925 0001306 261.3283  98.7421 15.27583150 82580","mean_motion":15.2758315,"eccentricity":0.0001306,"inclination_deg":42.9977,"raan_deg":246.6925,"arg_perigee_deg":261.3283,"mean_anomaly_deg":98.7421,"bstar":0.00050784,"rev_number":8258,"period_min":94.266554327992,"perigee_km":482.14359415036,"apogee_km":483.93573349495,"semimajor_km":6861.1766638227,"source":"CELESTRAK","updated_at":"2026-09-21T09:00:35.007210Z"}}